Weather History for Sanford, ME

Change the Weather History Date:

Tuesday, March 13, 2012

  Actual Average Record
Temperature  
Mean Temperature 56 °F -  
Max Temperature 71 °F 36 °F 71 °F (2012)
Min Temperature 41 °F 19 °F 3 °F (1998)
Degree Days  
Heating Degree Days 9    
Growing Degree Days 6 (Base 50)    
Moisture  
Dew Point 42 °F    
Average Humidity 68    
Maximum Humidity 93    
Minimum Humidity 46    
Precipitation  
Precipitation 0.00 in - - ()
Sea Level Pressure  
Sea Level Pressure 29.96 in    
Wind  
Wind Speed 2 mph (SW)    
Max Wind Speed 13 mph    
Max Gust Speed 18 mph    
Visibility 10 miles    
Events      
Averages and records for this station are not official NWS values.
T = Trace of Precipitation, MM = Missing Value Source: NWS Daily Summary

Daily Weather History Graph

Daily Weather History Graph

Search for Another Location

Airport:

Trip Planner

Search our weather history database for the weather conditions in past years. The results will help you decide how hot, cold, wet, or windy it might be!

Date:

Astronomy

Mar. 13, 2012 Rise Set
Actual Time 6:57 AM EDT 6:47 PM EDT
Civil Twilight 6:29 AM EDT 7:15 PM EDT
Nautical Twilight 5:56 AM EDT 7:48 PM EDT
Astronomical Twilight 5:22 AM EDT 8:22 PM EDT
Moon 12:26 AM EDT (3/13) 9:56 AM EDT (3/13)
Length of Visible Light 12h 46m
Length of Day
11h 49m
Waning Gibbous, 66% of the Moon is Illuminated
Mar 13
Waning Gibbous
Mar 14
Last Quarter
Mar 22
New
Mar 30
First Quarter
Apr 6
Full

Hourly Weather History & Observations

Time (EDT) Temp. Windchill Dew Point Humidity Pressure Visibility Wind Dir Wind Speed Gust Speed Precip Events Conditions
12:15 AM 42.8 °F - 37.4 °F 81% 30.10 in 10.0 mi Calm Calm - N/A   Mostly Cloudy
12:35 AM 42.8 °F - 33.8 °F 70% 30.10 in 10.0 mi Calm Calm - N/A   Overcast
12:55 AM 42.8 °F - 35.6 °F 76% 30.08 in 10.0 mi Calm Calm - N/A   Overcast
1:15 AM 42.8 °F - 37.4 °F 81% 30.09 in 10.0 mi Calm Calm - N/A   Overcast
1:35 AM 42.8 °F - 35.6 °F 76% 30.08 in 10.0 mi Calm Calm - N/A   Overcast
1:55 AM 42.8 °F - 35.6 °F 76% 30.08 in 10.0 mi Calm Calm - N/A   Overcast
2:15 AM 42.8 °F - 33.8 °F 70% 30.08 in 10.0 mi Calm Calm - N/A   Overcast
2:35 AM 42.8 °F - 35.6 °F 76% 30.07 in 10.0 mi Calm Calm - N/A   Overcast
2:55 AM 42.8 °F - 35.6 °F 76% 30.07 in 10.0 mi Calm Calm - N/A   Overcast
3:15 AM 42.8 °F - 35.6 °F 76% 30.06 in 10.0 mi Calm Calm - N/A   Overcast
3:35 AM 42.8 °F - 33.8 °F 70% 30.06 in 10.0 mi Calm Calm - N/A   Overcast
3:55 AM 42.8 °F - 33.8 °F 70% 30.05 in 10.0 mi Calm Calm - N/A   Overcast
4:15 AM 42.8 °F - 35.6 °F 76% 30.04 in 10.0 mi Calm Calm - N/A   Overcast
4:35 AM 42.8 °F - 35.6 °F 76% 30.04 in 10.0 mi Calm Calm - N/A   Overcast
4:55 AM 42.8 °F - 35.6 °F 76% 30.04 in 10.0 mi Calm Calm - N/A   Overcast
5:35 AM 42.8 °F - 35.6 °F 76% 30.04 in 10.0 mi Calm Calm - N/A   Overcast
5:55 AM 41.0 °F - 37.4 °F 87% 30.03 in 10.0 mi Calm Calm - N/A   Overcast
6:35 AM 42.8 °F - 39.2 °F 87% 30.03 in 10.0 mi Calm Calm - N/A   Overcast
6:55 AM 42.8 °F - 39.2 °F 87% 30.02 in 10.0 mi Calm Calm - N/A   Overcast
7:15 AM 41.0 °F - 39.2 °F 93% 30.03 in 10.0 mi Calm Calm - N/A   Overcast
7:35 AM 41.0 °F - 37.4 °F 87% 30.02 in 10.0 mi Calm Calm - N/A   Overcast
8:15 AM 42.8 °F - 39.2 °F 87% 30.01 in 10.0 mi Calm Calm - N/A   Overcast
8:35 AM 44.6 °F - 35.6 °F 71% 30.02 in 10.0 mi Calm Calm - N/A   Overcast
9:15 AM 46.4 °F - 37.4 °F 71% 30.02 in 10.0 mi Calm Calm - N/A   Overcast
9:35 AM 46.4 °F - 35.6 °F 66% 30.01 in 10.0 mi Calm Calm - N/A   Overcast
9:55 AM 48.2 °F - 37.4 °F 66% 30.00 in 10.0 mi Calm Calm - N/A   Overcast
10:15 AM 50.0 °F - 37.4 °F 62% 29.99 in 10.0 mi Calm Calm - N/A   Overcast
10:35 AM 51.8 °F - 39.2 °F 62% 29.99 in 10.0 mi Calm Calm - N/A   Overcast
10:55 AM 51.8 °F - 39.2 °F 62% 29.98 in 10.0 mi Calm Calm - N/A   Overcast
11:15 AM 53.6 °F - 39.2 °F 58% 29.97 in 10.0 mi Calm Calm - N/A   Overcast
11:35 AM 55.4 °F - 42.8 °F 63% 29.95 in 10.0 mi SSW 4.6 mph - N/A   Overcast
11:55 AM 60.8 °F - 44.6 °F 55% 29.95 in 10.0 mi SW 9.2 mph - N/A   Mostly Cloudy
12:15 PM 60.8 °F - 44.6 °F 55% 29.94 in 10.0 mi SSW 5.8 mph - N/A   Mostly Cloudy
12:35 PM 62.6 °F - 46.4 °F 55% 29.93 in 10.0 mi SSW 6.9 mph - N/A   Scattered Clouds
12:55 PM 62.6 °F - 46.4 °F 55% 29.92 in 10.0 mi SSW 9.2 mph - N/A   Clear
1:15 PM 64.4 °F - 46.4 °F 52% 29.90 in 10.0 mi South 4.6 mph - N/A   Clear
1:35 PM 64.4 °F - 48.2 °F 56% 29.89 in 10.0 mi South 3.5 mph - N/A   Clear
1:55 PM 66.2 °F - 48.2 °F 52% 29.88 in 10.0 mi SSW 9.2 mph - N/A   Clear
2:16 PM 69.8 °F - 50.0 °F 49% 29.87 in 10.0 mi South 10.4 mph - N/A   Partly Cloudy
2:35 PM 71.6 °F - 50.0 °F 46% 29.86 in 10.0 mi SSW 10.4 mph 17.3 mph N/A   Partly Cloudy
2:55 PM 69.8 °F - 50.0 °F 49% 29.86 in 10.0 mi SW 9.2 mph 17.3 mph N/A   Scattered Clouds
3:15 PM 69.8 °F - 50.0 °F 49% 29.85 in 10.0 mi WSW 10.4 mph - N/A   Mostly Cloudy
3:35 PM 68.0 °F - 50.0 °F 52% 29.85 in 10.0 mi SSW 6.9 mph - N/A   Overcast
3:55 PM 69.8 °F - 50.0 °F 49% 29.84 in 10.0 mi SW 5.8 mph - N/A   Mostly Cloudy
4:15 PM 71.6 °F - 50.0 °F 46% 29.84 in 10.0 mi SW 12.7 mph 17.3 mph N/A   Mostly Cloudy
4:35 PM 69.8 °F - 50.0 °F 49% 29.84 in 10.0 mi WSW 6.9 mph - N/A   Overcast
4:55 PM 69.8 °F - 50.0 °F 49% 29.84 in 10.0 mi NNE 8.1 mph - N/A   Overcast
5:15 PM 62.6 °F - 48.2 °F 59% 29.85 in 10.0 mi East 3.5 mph - N/A   Overcast
5:35 PM 60.8 °F - 48.2 °F 63% 29.86 in 10.0 mi NW 4.6 mph - N/A   Overcast
5:55 PM 68.0 °F - 48.2 °F 49% 29.86 in 10.0 mi West 12.7 mph - N/A   Overcast
6:15 PM 66.2 °F - 48.2 °F 52% 29.87 in 10.0 mi West 12.7 mph 18.4 mph N/A   Overcast
6:55 PM 66.2 °F - 48.2 °F 52% 29.88 in 10.0 mi West 8.1 mph - N/A   Overcast
7:15 PM 64.4 °F - 48.2 °F 56% 29.89 in 10.0 mi West 6.9 mph - N/A   Mostly Cloudy
7:55 PM 60.8 °F - 46.4 °F 59% 29.90 in 10.0 mi SW 3.5 mph - N/A   Clear
8:15 PM 55.4 °F - 46.4 °F 72% 29.90 in 10.0 mi Calm Calm - N/A   Clear
8:35 PM 51.8 °F - 46.4 °F 82% 29.91 in 10.0 mi NE 6.9 mph - N/A   Clear
8:55 PM 50.0 °F - 46.4 °F 87% 29.92 in 10.0 mi Calm Calm - N/A   Clear
9:15 PM 48.2 °F - 44.6 °F 87% 29.93 in 10.0 mi NE 5.8 mph - N/A   Clear
9:35 PM 48.2 °F - 44.6 °F 87% 29.95 in 10.0 mi ENE 9.2 mph - N/A   Clear
9:55 PM 46.4 °F 42.4 °F 44.6 °F 93% 29.95 in 10.0 mi NE 8.1 mph - N/A   Clear
10:15 PM 46.4 °F 42.4 °F 44.6 °F 93% 29.96 in 9.0 mi NNE 8.1 mph - N/A   Scattered Clouds
10:35 PM 46.4 °F 41.1 °F 44.6 °F 93% 29.97 in 6.0 mi NE 11.5 mph - N/A   Mostly Cloudy
10:55 PM 46.4 °F 41.9 °F 44.6 °F 93% 29.97 in 2.5 mi NNE 9.2 mph - N/A   Overcast
11:15 PM 44.6 °F 39.2 °F 44.6 °F 100% 29.98 in 0.8 mi NNE 10.4 mph - N/A   Overcast
11:35 PM 44.6 °F 38.4 °F 44.6 °F 100% 29.98 in 0.8 mi NE 12.7 mph - N/A   Overcast
11:55 PM 44.6 °F 39.7 °F 44.6 °F 100% 29.99 in 0.8 mi NE 9.2 mph - N/A   Overcast